Air Force Academy, CO

5:14 PM MDT on April 25, 2017 (GMT -0600)
Usaf Academy

Weather History for KAFF - May, 2013

Change the Weather History Date:

Tuesday, May 7, 2013

  Actual Average Record
Temperature  
Mean Temperature 54 °F -  
Max Temperature 65 °F 62 °F 80 °F (2011)
Min Temperature 45 °F 35 °F 23 °F (1999)
Degree Days  
Heating Degree Days 10    
Growing Degree Days 4 (Base 50)    
Moisture  
Dew Point 29 °F    
Average Humidity 38    
Maximum Humidity 75    
Minimum Humidity 21    
Precipitation  
Precipitation 0.00 in - - ()
Sea Level Pressure  
Sea Level Pressure 29.89 in    
Wind  
Wind Speed 10 mph (NNW)    
Max Wind Speed 26 mph    
Max Gust Speed 43 mph    
Visibility 10 miles    
Events Rain    
Averages and records for this station are not official NWS values.
T = Trace of Precipitation, MM = Missing Value Source: NWS Daily Summary

Daily Weather History Graph

Daily Weather History Graph

Search for Another Location

Airport or City:

Trip Planner

Search our weather history database for the weather conditions in past years. The results will help you decide how hot, cold, wet, or windy it might be!

Date:

Astronomy

May. 07, 2013 Rise Set
Actual Time 5:54 AM MDT 7:58 PM MDT
Civil Twilight 5:24 AM MDT 8:27 PM MDT
Nautical Twilight 4:48 AM MDT 9:03 PM MDT
Astronomical Twilight 4:10 AM MDT 9:42 PM MDT
Moon 4:28 AM MDT (5/7) 6:01 PM MDT (5/7)
Length of Visible Light 15h 02m
Length of Day
14h 03m
Waning Crescent, 5% of the Moon is Illuminated
May 7
Waning Crescent
May 9
New
May 17
First Quarter
May 24
Full
May 31
Last Quarter

Hourly Weather History & Observations

Time (MDT) Temp. Windchill Dew Point Humidity Pressure Visibility Wind Dir Wind Speed Gust Speed Precip Events Conditions
12:58 AM 45.0 °F 41.2 °F 34.2 °F 66% 29.84 in 10.0 mi Variable 6.9 mph - N/A   Clear
1:14 AM 48.2 °F - 32.0 °F 54% 29.99 in 10.0 mi SW 11.5 mph 20.7 mph N/A   Clear
1:58 AM 48.7 °F - 32.7 °F 54% 29.83 in 10.0 mi Variable 5.8 mph - N/A   Clear
2:02 AM 48.2 °F - 32.0 °F 54% 29.97 in 10.0 mi North 26.5 mph 42.6 mph N/A   Clear
2:58 AM 49.8 °F - 31.3 °F 49% 29.79 in 10.0 mi South 6.9 mph - N/A   Partly Cloudy
3:58 AM 49.6 °F - 31.6 °F 50% 29.79 in 10.0 mi WNW 11.5 mph - N/A   Clear
4:58 AM 48.6 °F - 30.2 °F 49% 29.79 in 10.0 mi North 9.2 mph 16.1 mph N/A   Partly Cloudy
5:58 AM 48.2 °F - 30.7 °F 51% 29.82 in 10.0 mi North 9.2 mph - N/A   Mostly Cloudy
6:58 AM 51.1 °F - 30.4 °F 45% 29.82 in 10.0 mi North 11.5 mph - N/A   Mostly Cloudy
7:58 AM 54.1 °F - 31.1 °F 41% 29.86 in 10.0 mi NNW 15.0 mph - N/A   Mostly Cloudy
8:58 AM 56.7 °F - 30.0 °F 36% 29.84 in 10.0 mi NNW 13.8 mph 19.6 mph N/A   Clear
9:31 AM 60.8 °F - 26.6 °F 27% 30.01 in 10.0 mi NW 16.1 mph 23.0 mph N/A   Partly Cloudy
9:58 AM 59.7 °F - 25.5 °F 27% 29.83 in 10.0 mi North 6.9 mph 21.9 mph N/A   Clear
10:54 AM 60.8 °F - 26.6 °F 27% 30.00 in 10.0 mi Variable 4.6 mph - N/A   Mostly Cloudy
11:54 AM 62.6 °F - 24.8 °F 24% 29.99 in 10.0 mi NNE 5.8 mph - N/A   Partly Cloudy
12:54 PM 64.4 °F - 24.8 °F 22% 29.97 in 10.0 mi NNE 5.8 mph - N/A   Scattered Clouds
1:58 PM 63.9 °F - 24.6 °F 23% 29.78 in 10.0 mi Variable 3.5 mph - N/A   Partly Cloudy
2:39 PM 64.4 °F - 24.8 °F 22% 29.96 in 10.0 mi SSW 16.1 mph 19.6 mph N/A   Scattered Clouds
2:40 PM 64.4 °F - 24.8 °F 22% 29.96 in 10.0 mi SW 16.1 mph 19.6 mph N/A   Scattered Clouds
2:41 PM 64.4 °F - 23.0 °F 21% 29.96 in 10.0 mi WNW 16.1 mph - N/A   Scattered Clouds
2:46 PM 64.4 °F - 24.8 °F 22% 29.96 in 10.0 mi North 13.8 mph 21.9 mph N/A   Scattered Clouds
2:58 PM 63.0 °F - 27.9 °F 27% 29.78 in 10.0 mi NNE 9.2 mph 18.4 mph N/A   Scattered Clouds
3:55 PM 64.4 °F - 27.0 °F 24% 29.69 in 10.0 mi East 6.9 mph - N/A   Partly Cloudy
4:33 PM 62.6 °F - 26.6 °F 26% 29.95 in 10.0 mi ESE 15.0 mph - N/A   Partly Cloudy
4:37 PM 62.6 °F - 26.6 °F 26% 29.95 in 10.0 mi SE 17.3 mph 25.3 mph N/A Rain Light Rain Showers
4:48 PM 60.8 °F - 28.4 °F 29% 29.96 in 10.0 mi NW 8.1 mph 28.8 mph N/A   Mostly Cloudy
4:55 PM 59.5 °F - 27.0 °F 29% 29.72 in 10.0 mi Variable 3.5 mph - 0.00 in   Mostly Cloudy
4:58 PM 59.5 °F - 27.0 °F 29% 29.82 in 10.0 mi Variable 3.5 mph - 0.00 in   Mostly Cloudy
5:58 PM 57.6 °F - 28.2 °F 33% 29.83 in 10.0 mi NNW 10.4 mph - N/A   Scattered Clouds
6:58 PM 54.0 °F - 32.7 °F 45% 29.84 in 10.0 mi West 10.4 mph - N/A   Clear
7:58 PM 55.2 °F - 29.3 °F 37% 29.81 in 10.0 mi ESE 9.2 mph - N/A   Partly Cloudy
8:58 PM 52.7 °F - 31.3 °F 44% 29.84 in 10.0 mi NE 4.6 mph - N/A   Clear
9:54 PM 50.0 °F - 33.8 °F 54% 30.05 in 10.0 mi North 16.1 mph - N/A   Clear
10:58 PM 46.4 °F 40.7 °F 37.6 °F 71% 30.05 in 10.0 mi North 12.7 mph - N/A   Clear
11:58 PM 45.0 °F 39.7 °F 37.4 °F 75% 30.05 in 10.0 mi North 10.4 mph - N/A   Clear